EW5004 Weather Reports


time (UTC)temp
C
wind
direction
speed
KPH
gust
KPH
rain 1hr
cm
rain 24hr
cm
rain mn
cm
humidity
%
barometer
mb
20260503224511 15 304 9.7 19.3 0.00 0.00 0.00 41 1011.0
20260503223006 15 306 8.0 17.7 0.00 0.00 0.00 42 1011.0
20260503221502 15 294 8.0 16.1 0.00 0.00 0.00 44 1011.1
20260503220105 15 329 8.0 19.3 0.00 0.00 0.00 44 1011.2
20260503214557 15 302 6.4 17.7 0.00 0.00 0.00 43 1011.2
20260503213120 15 338 9.7 22.5 0.00 0.00 0.00 43 1011.0
20260503211612 15 319 9.7 22.5 0.00 0.00 0.00 43 1011.1
20260503210041 15 311 9.7 29.0 0.00 0.00 0.00 41 1010.9
20260503204552 15 355 6.4 20.9 0.00 0.00 0.00 40 1011.0
20260503203035 15 340 12.9 25.7 0.00 0.00 0.00 36 1011.3
20260503201527 15 315 9.7 32.2 0.00 0.00 0.00 35 1011.5
20260503200023 15 38 11.3 33.8 0.00 0.00 0.00 34 1011.7
20260503194523 16 299 12.9 29.0 0.00 0.00 0.00 34 1011.8
20260503193014 15 16 12.9 30.6 0.00 0.00 0.00 35 1012.1
20260503191510 16 11 11.3 29.0 0.00 0.00 0.00 35 1012.4
20260503190006 16 343 9.7 38.6 0.00 0.00 0.00 36 1012.5
20260503184501 15 313 14.5 29.0 0.00 0.00 0.00 35 1012.6
20260503183106 15 324 11.3 27.4 0.00 0.00 0.00 36 1012.7
20260503181555 16 360 9.7 27.4 0.00 0.00 0.00 37 1013.0
20260503180049 15 342 11.3 30.6 0.00 0.00 0.00 36 1013.0
20260503174558 14 22 11.3 22.5 0.00 0.00 0.00 37 1013.2
20260503173039 14 332 12.9 27.4 0.00 0.00 0.00 37 1013.3
20260503171536 14 309 6.4 30.6 0.00 0.00 0.00 39 1013.5
20260503081601 0 242 1.6 6.4 0.00 0.00 0.00 7 1015.5
20260503071602 0 270 0.0 3.2 0.00 0.00 0.00 5 1015.6
20260503054526 0 287 1.6 3.2 0.00 0.00 0.00 8 1016.0
20260503053009 0 287 1.6 3.2 0.00 0.00 0.00 12 1016.1
20260503051504 0 287 1.6 3.2 0.00 0.00 0.00 19 1016.1
20260503050003 1 288 0.0 3.2 0.00 0.00 0.00 28 1016.2
20260503044557 1 288 1.6 4.8 0.00 0.00 0.00 32 1016.2
20260503043058 2 289 0.0 4.8 0.00 0.00 0.00 33 1016.2
20260503041554 2 290 0.0 3.2 0.00 0.00 0.00 34 1016.3
20260503040055 2 290 1.6 4.8 0.00 0.00 0.00 34 1016.4
20260503034553 2 291 0.0 4.8 0.00 0.00 0.00 36 1016.4
20260503033058 2 292 0.0 3.2 0.00 0.00 0.00 38 1016.4
20260503031548 2 293 0.0 3.2 0.00 0.00 0.00 41 1016.5
20260503030048 2 293 0.0 3.2 0.00 0.00 0.00 45 1016.6
20260503024549 2 293 0.0 3.2 0.00 0.00 0.00 49 1016.6
20260503023048 3 294 0.0 4.8 0.00 0.00 0.00 52 1016.8
20260503021542 3 292 0.0 0.0 0.00 0.00 0.00 54 1016.7
20260503020046 3 294 1.6 4.8 0.00 0.00 0.00 57 1016.6
20260503014544 4 298 0.0 6.4 0.00 0.00 0.00 58 1016.6
20260503013043 4 301 1.6 6.4 0.00 0.00 0.00 59 1016.6
20260503011549 4 286 3.2 8.0 0.00 0.00 0.00 59 1016.6
20260503010040 5 295 1.6 8.0 0.00 0.00 0.00 60 1016.6
20260503004638 5 301 3.2 8.0 0.00 0.00 0.00 60 1016.5
20260503003040 5 303 1.6 8.0 0.00 0.00 0.00 60 1016.5
20260503001538 5 329 3.2 6.4 0.00 0.00 0.00 60 1016.4
20260503000039 5 340 6.4 14.5 0.00 0.00 0.00 60 1016.5
20260502234548 5 303 6.4 16.1 0.00 0.00 0.00 60 1016.4
20260502233036 5 13 6.4 11.3 0.00 0.00 0.00 60 1016.4
20260502231536 5 355 6.4 12.9 0.00 0.00 0.00 60 1016.4
20260502230035 5 335 4.8 16.1 0.00 0.00 0.00 60 1016.4